• In Hungary
  • List of Countries
  • For 7 days
  • Water Temperature
  • Satellite Maps
  • Weather Map
  • News
  • Weather Widgets
  • user-avatar
    Login

    Hourly Weather Bekescsaba

    Today, 24 May, Wednesday

    Time Temperature Precipitation Wind Pressure Humidity
    00:00 +17°C° 0.7 mm 2 mps 754 mmHg 88%
    01:00 +16°C° 0.7 mm 2 mps 754 mmHg 89%
    02:00 +16°C° 0.2 mm 2 mps 753 mmHg 90%
    03:00 +15°C° 0.2 mm 2 mps 753 mmHg 92%
    04:00 +15°C° 0.2 mm 2 mps 753 mmHg 93%
    05:00 +16°C° 0 mm 3 mps 753 mmHg 90%
    06:00 +18°C° 0 mm 3 mps 753 mmHg 87%
    07:00 +19°C° 0 mm 3 mps 753 mmHg 84%
    08:00 +20°C° 0.5 mm 4 mps 753 mmHg 78%
    09:00 +21°C° 0.5 mm 4 mps 753 mmHg 73%
    10:00 +23°C° 0.5 mm 4 mps 753 mmHg 68%
    11:00 +23°C° 0.9 mm 5 mps 753 mmHg 68%
    12:00 +23°C° 0.9 mm 6 mps 752 mmHg 69%
    13:00 +23°C° 0.9 mm 6 mps 752 mmHg 69%
    14:00 +22°C° 0.6 mm 6 mps 752 mmHg 70%
    15:00 +21°C° 0.6 mm 6 mps 752 mmHg 70%
    16:00 +21°C° 0.6 mm 6 mps 752 mmHg 70%
    17:00 +19°C° 0.1 mm 6 mps 752 mmHg 71%
    18:00 +17°C° 0.1 mm 5 mps 752 mmHg 72%
    19:00 +16°C° 0.1 mm 5 mps 752 mmHg 73%
    20:00 +15°C° 0 mm 4 mps 752 mmHg 74%
    21:00 +14°C° 0 mm 4 mps 753 mmHg 76%
    22:00 +13°C° 0 mm 4 mps 753 mmHg 77%
    23:00 +13°C° 0 mm 3 mps 753 mmHg 79%

    Tomorrow, 25 May, Thursday

    Time Temperature Precipitation Wind Pressure Humidity
    00:00 +12°C° 0 mm 3 mps 753 mmHg 80%
    01:00 +12°C° 0 mm 2 mps 753 mmHg 82%
    02:00 +12°C° 0 mm 2 mps 753 mmHg 84%
    03:00 +10°C° 0 mm 2 mps 753 mmHg 86%
    04:00 +9°C° 0 mm 3 mps 753 mmHg 87%
    05:00 +10°C° 0 mm 2 mps 753 mmHg 83%
    06:00 +13°C° 0 mm 2 mps 753 mmHg 79%
    07:00 +14°C° 0 mm 2 mps 753 mmHg 75%
    08:00 +15°C° 0 mm 2 mps 753 mmHg 71%
    09:00 +16°C° 0 mm 2 mps 753 mmHg 66%
    10:00 +18°C° 0 mm 2 mps 753 mmHg 62%
    11:00 +18°C° 0.2 mm 2 mps 753 mmHg 60%
    12:00 +19°C° 0.2 mm 2 mps 752 mmHg 59%
    13:00 +19°C° 0.2 mm 3 mps 752 mmHg 57%
    14:00 +19°C° 0.2 mm 3 mps 752 mmHg 59%
    15:00 +19°C° 0.2 mm 3 mps 752 mmHg 60%
    16:00 +19°C° 0.2 mm 3 mps 752 mmHg 62%
    17:00 +18°C° 0.1 mm 3 mps 752 mmHg 69%
    18:00 +16°C° 0.1 mm 2 mps 752 mmHg 76%
    19:00 +14°C° 0.1 mm 2 mps 752 mmHg 83%
    20:00 +13°C° 0.1 mm 1 mps 752 mmHg 85%
    21:00 +12°C° 0.1 mm 1 mps 752 mmHg 87%
    22:00 +11°C° 0.1 mm 1 mps 752 mmHg 89%
    23:00 +11°C° 0 mm 1 mps 752 mmHg 89%

    Day after tomorrow, 26 May, Friday

    Time Temperature Precipitation Wind Pressure Humidity
    00:00 +11°C° 0 mm 1 mps 752 mmHg 90%
    01:00 +11°C° 0 mm 1 mps 752 mmHg 90%
    02:00 +11°C° 0 mm 1 mps 752 mmHg 90%
    03:00 +11°C° 0 mm 1 mps 752 mmHg 90%
    04:00 +11°C° 0 mm 1 mps 752 mmHg 90%
    05:00 +12°C° 0.1 mm 2 mps 752 mmHg 88%
    06:00 +13°C° 0.1 mm 2 mps 752 mmHg 86%
    07:00 +15°C° 0.1 mm 2 mps 752 mmHg 84%
    08:00 +14°C° 0.6 mm 3 mps 752 mmHg 85%
    09:00 +14°C° 0.6 mm 3 mps 752 mmHg 86%
    10:00 +14°C° 0.6 mm 4 mps 752 mmHg 87%
    11:00 +15°C° 0.4 mm 4 mps 752 mmHg 84%
    12:00 +17°C° 0.4 mm 4 mps 752 mmHg 81%
    13:00 +17°C° 0.4 mm 4 mps 752 mmHg 78%
    14:00 +18°C° 0.2 mm 4 mps 752 mmHg 76%
    15:00 +19°C° 0.2 mm 4 mps 751 mmHg 73%
    16:00 +19°C° 0.2 mm 4 mps 751 mmHg 71%
    17:00 +18°C° 0.1 mm 4 mps 751 mmHg 76%
    18:00 +17°C° 0.1 mm 3 mps 751 mmHg 82%
    19:00 +14°C° 0.1 mm 3 mps 752 mmHg 87%
    20:00 +14°C° 0 mm 3 mps 752 mmHg 89%
    21:00 +13°C° 0 mm 3 mps 752 mmHg 90%
    22:00 +12°C° 0 mm 3 mps 752 mmHg 92%
    23:00 +12°C° 0 mm 3 mps 752 mmHg 93%

    27 May, Saturday

    Time Temperature Precipitation Wind Pressure Humidity
    00:00 +11°C° 0 mm 3 mps 752 mmHg 93%
    01:00 +11°C° 0 mm 3 mps 752 mmHg 94%
    02:00 +10°C° 0 mm 3 mps 752 mmHg 94%
    03:00 +10°C° 0 mm 3 mps 752 mmHg 94%
    04:00 +10°C° 0 mm 3 mps 753 mmHg 95%
    05:00 +11°C° 0 mm 4 mps 753 mmHg 90%
    06:00 +12°C° 0 mm 4 mps 753 mmHg 86%
    07:00 +14°C° 0 mm 5 mps 753 mmHg 82%
    08:00 +15°C° 0 mm 5 mps 754 mmHg 76%
    09:00 +17°C° 0 mm 6 mps 754 mmHg 70%
    10:00 +20°C° 0 mm 6 mps 754 mmHg 64%
    11:00 +20°C° 0.2 mm 7 mps 754 mmHg 63%
    12:00 +21°C° 0.2 mm 7 mps 754 mmHg 62%
    13:00 +21°C° 0.2 mm 7 mps 753 mmHg 60%
    14:00 +21°C° 0.2 mm 7 mps 754 mmHg 61%
    15:00 +21°C° 0.2 mm 6 mps 754 mmHg 63%
    16:00 +21°C° 0.2 mm 6 mps 754 mmHg 64%
    17:00 +20°C° 0.1 mm 5 mps 754 mmHg 69%
    18:00 +17°C° 0.1 mm 5 mps 754 mmHg 74%
    19:00 +17°C° 0.1 mm 4 mps 754 mmHg 79%
    20:00 +15°C° 0 mm 4 mps 755 mmHg 79%
    21:00 +14°C° 0 mm 4 mps 755 mmHg 79%
    22:00 +14°C° 0 mm 4 mps 755 mmHg 79%
    23:00 +13°C° 0 mm 4 mps 755 mmHg 80%

    28 May, Sunday

    Time Temperature Precipitation Wind Pressure Humidity
    00:00 +12°C° 0 mm 4 mps 756 mmHg 81%
    01:00 +12°C° 0 mm 4 mps 756 mmHg 82%
    02:00 +11°C° 0 mm 4 mps 756 mmHg 83%
    03:00 +11°C° 0 mm 4 mps 756 mmHg 85%
    04:00 +10°C° 0 mm 4 mps 756 mmHg 86%
    05:00 +12°C° 0 mm 4 mps 757 mmHg 82%
    06:00 +13°C° 0 mm 4 mps 757 mmHg 78%
    07:00 +15°C° 0 mm 4 mps 757 mmHg 75%
    08:00 +18°C° 0 mm 4 mps 758 mmHg 70%
    09:00 +20°C° 0 mm 5 mps 758 mmHg 65%
    10:00 +21°C° 0 mm 5 mps 758 mmHg 60%
    11:00 +22°C° 0 mm 5 mps 758 mmHg 58%
    12:00 +23°C° 0 mm 5 mps 758 mmHg 56%
    13:00 +25°C° 0 mm 5 mps 758 mmHg 54%
    14:00 +25°C° 0 mm 5 mps 758 mmHg 55%
    15:00 +23°C° 0 mm 5 mps 758 mmHg 56%
    16:00 +23°C° 0 mm 5 mps 757 mmHg 57%
    17:00 +22°C° 0 mm 4 mps 758 mmHg 63%
    18:00 +20°C° 0 mm 3 mps 758 mmHg 70%
    19:00 +18°C° 0 mm 3 mps 758 mmHg 76%
    20:00 +17°C° 0 mm 3 mps 758 mmHg 77%
    21:00 +16°C° 0 mm 3 mps 759 mmHg 79%
    22:00 +15°C° 0 mm 2 mps 759 mmHg 80%
    23:00 +14°C° 0 mm 2 mps 759 mmHg 81%

    29 May, Monday

    Time Temperature Precipitation Wind Pressure Humidity
    00:00 +14°C° 0 mm 2 mps 759 mmHg 82%
    01:00 +13°C° 0 mm 2 mps 759 mmHg 83%
    02:00 +13°C° 0 mm 2 mps 759 mmHg 83%
    03:00 +13°C° 0 mm 2 mps 760 mmHg 83%
    04:00 +12°C° 0 mm 2 mps 760 mmHg 83%
    05:00 +14°C° 0 mm 2 mps 760 mmHg 77%
    06:00 +16°C° 0 mm 2 mps 760 mmHg 72%
    07:00 +19°C° 0 mm 2 mps 760 mmHg 67%
    08:00 +20°C° 0 mm 2 mps 760 mmHg 63%
    09:00 +23°C° 0 mm 2 mps 760 mmHg 59%
    10:00 +24°C° 0 mm 2 mps 761 mmHg 55%
    11:00 +25°C° 0 mm 2 mps 760 mmHg 53%
    12:00 +26°C° 0 mm 2 mps 760 mmHg 50%
    13:00 +26°C° 0 mm 2 mps 760 mmHg 47%
    14:00 +26°C° 0 mm 2 mps 760 mmHg 48%
    15:00 +26°C° 0 mm 2 mps 759 mmHg 48%
    16:00 +26°C° 0 mm 2 mps 759 mmHg 49%
    17:00 +24°C° 0 mm 1 mps 759 mmHg 57%
    18:00 +22°C° 0 mm 1 mps 759 mmHg 65%
    19:00 +20°C° 0 mm 1 mps 759 mmHg 73%
    20:00 +19°C° 0 mm 1 mps 759 mmHg 74%
    21:00 +18°C° 0 mm 1 mps 759 mmHg 75%
    22:00 +16°C° 0 mm 2 mps 759 mmHg 77%
    23:00 +16°C° 0 mm 2 mps 759 mmHg 77%
    Show more